N8289A LGSK-LGSK

Flight info

Callsign N8289A
Flight time 0h 4m
Altitude 2000
Route SKP
Aircraft P28A/L-SFG/C

Departure

Time 2026-04-21 18:05
Airport Skiathos Island National Airport (LGSK)

Arrival

Time 2026-04-21 18:09
Airport Skiathos Island National Airport (LGSK)
Time Latitude Longitude Altitude Speed Heading
2026-04-21 17:51 39.17647 23.50199 32 ft 0 kts 109°
2026-04-21 17:52 39.17647 23.50198 32 ft 0 kts 109°
2026-04-21 18:00 39.17646 23.50202 32 ft 2 kts 116°
2026-04-21 18:00 39.17615 23.50210 32 ft 7 kts 186°
2026-04-21 18:00 39.17589 23.50213 32 ft 0 kts 128°
2026-04-21 18:01 39.17578 23.50228 32 ft 5 kts 128°
2026-04-21 18:01 39.17542 23.50276 33 ft 9 kts 163°
2026-04-21 18:02 39.17461 23.50247 32 ft 16 kts 199°
2026-04-21 18:02 39.17329 23.50190 24 ft 24 kts 199°
2026-04-21 18:02 39.17157 23.50114 15 ft 25 kts 198°
2026-04-21 18:02 39.17073 23.50073 10 ft 8 kts 191°
2026-04-21 18:03 39.17025 23.50053 4 ft 9 kts 89°
2026-04-21 18:03 39.17037 23.50067 6 ft 0 kts 22°
2026-04-21 18:03 39.17191 23.50136 16 ft 48 kts 19°
2026-04-21 18:04 39.17603 23.50326 122 ft 67 kts 20°
2026-04-21 18:04 39.18075 23.50555 273 ft 73 kts 17°
2026-04-21 18:04 39.18556 23.50749 461 ft 73 kts 14°
2026-04-21 18:04 39.19068 23.50655 644 ft 79 kts 328°
2026-04-21 18:05 39.19305 23.50016 838 ft 85 kts 283°
2026-04-21 18:05 39.19393 23.49225 1013 ft 92 kts 271°
2026-04-21 18:05 39.18978 23.48582 1053 ft 107 kts 199°
2026-04-21 18:05 39.18237 23.48431 1096 ft 111 kts 188°
2026-04-21 18:06 39.17470 23.48348 1100 ft 109 kts 187°
2026-04-21 18:06 39.16719 23.48275 1020 ft 112 kts 185°
2026-04-21 18:06 39.15957 23.48128 1019 ft 107 kts 192°
2026-04-21 18:06 39.15219 23.48003 868 ft 109 kts 188°
2026-04-21 18:07 39.14500 23.48189 665 ft 104 kts 144°
2026-04-21 18:07 39.14160 23.48901 475 ft 84 kts 78°
2026-04-21 18:07 39.14590 23.49051 362 ft 74 kts 346°
2026-04-21 18:07 39.15060 23.49144 327 ft 70 kts 20°
2026-04-21 18:08 39.15509 23.49393 246 ft 69 kts 16°
2026-04-21 18:08 39.15952 23.49591 208 ft 67 kts 18°
2026-04-21 18:08 39.16383 23.49782 170 ft 64 kts 18°
2026-04-21 18:08 39.16800 23.49963 99 ft 63 kts 15°
2026-04-21 18:09 39.17205 23.50138 30 ft 56 kts 18°
2026-04-21 18:09 39.17505 23.50275 33 ft 44 kts 20°
2026-04-21 18:09 39.17756 23.50385 38 ft 70 kts 18°
2026-04-21 18:09 39.18404 23.50658 231 ft 77 kts 18°
2026-04-21 18:10 39.18938 23.50835 408 ft 85 kts 15°
2026-04-21 18:10 39.19466 23.51146 623 ft 83 kts 37°
2026-04-21 18:10 39.19833 23.51762 752 ft 92 kts 64°
2026-04-21 18:10 39.19900 23.52566 943 ft 93 kts 97°
2026-04-21 18:11 39.19719 23.53374 1070 ft 95 kts 104°
2026-04-21 18:11 39.19564 23.54186 1158 ft 94 kts 99°
2026-04-21 18:11 39.19424 23.55041 1179 ft 99 kts 102°
2026-04-21 18:11 39.19034 23.55768 1204 ft 101 kts 139°
2026-04-21 18:12 39.18423 23.56169 1241 ft 99 kts 165°
2026-04-21 18:12 39.17737 23.56201 1244 ft 101 kts 193°
2026-04-21 18:12 39.17058 23.55998 1303 ft 100 kts 196°
2026-04-21 18:12 39.16376 23.55807 1364 ft 99 kts 195°
2026-04-21 18:13 39.15714 23.55565 1373 ft 102 kts 197°
2026-04-21 18:13 39.15582 23.55517 1381 ft 102 kts 197°